This is the latest recevied weather packets stored in our database for station/object W3TMB. If no packets are shown the sender has not sent any weather packets the latest 10 day(s).
| Time | Temp. | Humidity | Pressure | Rain* | Wind** | Luminosity | Snow |
|---|---|---|---|---|---|---|---|
| 1777416016 | 12.22° C | 83% | 1015 hPa | 0 mm | - | 12 W/m² | - |
| 1777415712 | 12.22° C | 83% | 1014.9 hPa | 0 mm | - | 15 W/m² | - |
| 1777415408 | 12.22° C | 83% | 1015.1 hPa | 0 mm | - | 16 W/m² | - |
| 1777415108 | 12.22° C | 82% | 1014.9 hPa | 0 mm | - | 18 W/m² | - |
| 1777414803 | 12.22° C | 82% | 1015 hPa | 0 mm | - | 18 W/m² | - |
| 1777414499 | 12.22° C | 83% | 1015 hPa | 0 mm | - | 20 W/m² | - |
| 1777414197 | 12.22° C | 82% | 1014.8 hPa | 0 mm | - | 22 W/m² | - |
| 1777413893 | 12.22° C | 82% | 1015 hPa | 0 mm | - | 27 W/m² | - |
| 1777413589 | 12.22° C | 82% | 1014.9 hPa | 0 mm | - | 27 W/m² | - |
| 1777413285 | 12.22° C | 82% | 1014.9 hPa | 0 mm | - | 27 W/m² | - |
| 1777412981 | 12.22° C | 82% | 1015 hPa | 0 mm | - | 26 W/m² | - |
| 1777412680 | 12.22° C | 82% | 1015 hPa | 0 mm | - | 26 W/m² | - |
| 1777412378 | 12.22° C | 82% | 1014.9 hPa | 0 mm | - | 29 W/m² | - |
| 1777412072 | 12.22° C | 81% | 1014.8 hPa | 0 mm | - | 30 W/m² | - |
| 1777411768 | 12.22° C | 81% | 1015 hPa | 0 mm | - | 27 W/m² | - |
| 1777411462 | 12.22° C | 81% | 1015.1 hPa | 0 mm | - | 29 W/m² | - |
| 1777411162 | 12.22° C | 81% | 1015 hPa | 0 mm | - | 36 W/m² | - |
| 1777410856 | 12.22° C | 81% | 1014.9 hPa | 0 mm | - | 40 W/m² | - |
| 1777410556 | 12.22° C | 81% | 1014.7 hPa | 0 mm | - | 42 W/m² | - |
| 1777410255 | 12.22° C | 80% | 1015 hPa | 0 mm | - | 47 W/m² | - |
| 1777409950 | 12.22° C | 81% | 1014.6 hPa | 0 mm | - | 56 W/m² | - |
| 1777409645 | 12.22° C | 81% | 1014.8 hPa | 0 mm | - | 41 W/m² | - |
| 1777409341 | 12.22° C | 80% | 1014.8 hPa | 0 mm | - | 47 W/m² | - |
| 1777409037 | 12.22° C | 80% | 1015 hPa | 0 mm | - | 53 W/m² | - |
| 1777408734 | 12.78° C | 80% | 1014.8 hPa | 0 mm | - | 55 W/m² | - |
* Rain latest hour (hover to see other rain measurements)
** Current wind speed in m/s (hover to see current wind gust speed)